Location: *
(45.8589°N, 4.7139°E)
Time: 09:45:11
(UTC+00:00)

ATLAS 2AS CENTAUR R/B - Pass Details

Date: 09 April 2020
Orbit: 931 x 1280 km, 63.7° (Epoch: 31 May)

Event Time Altitude Azimuth Distance (km) Brightness Sun altitude
Rises 19:56:40 0° 318° (NW) 4,157 7.2 -16.3°
Reaches altitude 10° 19:59:40 10° 313° (NW) 3,145 6.4 -16.8°
Maximum altitude 20:06:39 43° 245° (WSW) 1,540 3.8 -17.8°
Enters shadow 20:12:56 11° 176° (S) 2,846 4.6 -18.7°
